Location: Stark Bayou Observatory
(30.3992°N, 88.7844°W)
Time: 02:45:54
(UTC-06:00)

Hubble Space Telescope - Visible Passes

Search period start: 22 January 2019 00:00
Search period end: 01 February 2019 00:00
Orbit: 537 x 540 km, 28.5° (Epoch: 21 January)

Date Brightness Start Highest point End Pass type
(mag) Time Alt. Az. Time Alt. Az. Time Alt. Az.
22 Jan 4.1 03:58:45 11° E 03:58:45 11° E 03:58:54 10° E visible
22 Jan 1.0 05:34:05 30° WSW 05:35:55 63° S 05:40:00 10° ESE visible
23 Jan 1.0 05:24:15 40° WSW 05:25:28 58° S 05:29:32 10° ESE visible
24 Jan 1.1 05:14:24 47° SW 05:14:59 52° S 05:19:01 10° ESE visible
25 Jan 1.3 05:04:34 46° S 05:04:34 46° S 05:08:29 10° ESE visible
26 Jan 1.9 04:54:46 36° S 04:54:46 36° S 04:57:54 10° SE visible
27 Jan 2.5 04:44:58 26° SSE 04:44:58 26° SSE 04:47:17 10° SE visible
27 Jan 3.2 06:23:21 10° SW 06:24:15 11° SSW 06:25:09 10° SSW visible
28 Jan 3.1 04:35:13 18° SSE 04:35:13 18° SSE 04:36:35 10° SE visible
29 Jan 3.6 04:25:31 11° SSE 04:25:31 11° SSE 04:25:47 10° SSE visible
